Find SITRO-AIS-20

NORAD ID: 61758 Int'l Des: 2024-199 Owner: SITRO Country: RU Constellation: sitronics operational
LEOCIRCULARRETROGRADESSO

現在のビュー

3D地球を読み込み中...

About SITRO-AIS-20

SITRO-AIS-20 (NORAD 61758) is a sitronics constellation satellite launched Nov 4, 2024 by SITRO of RU. It operates in LEO, CIRCULAR, RETROGRADE, SSO orbit with a mass of 3.00 kg.

SITRO-AIS-20について

説明を読み込み中...

次回通過

Passes for default location (London). Set your location on the main map for personalized predictions.

高度履歴

Loading altitude history...

軌道要素

1 61758U 24199Z 26195.62275619 .00001598 00000-0 13963-3 0 9991
2 61758 97.3211 33.4971 0005223 351.1465 8.9665 14.98069084139248
Epoch: Jul 14, 2026 • Age: 4 hours

現在のステータス

高度 600.4 km
遠地点 / 近地点 N/A
速度 7.56 km/s
衛星直下点 -75.18°S, 37.32°W
打ち上げ日 Nov 4, 2024
運用期間 1.6 years
タイプ other

技術仕様

分類 Payload
質量 3.00 kg
乾燥質量 3.00 kg
総質量 3.00 kg
長さ 0.30 m
直径 0.10 m
スパン 0.30 m
形状 Box
製造者 SPUT
バスタイプ Cubesat 3U
フェーズステータス In Orbit
所有者/国 SITRO/RU

Most Searched